Tracking 33747 objects as of 12-Apr-2026
HD Live streaming from Space Station
objects crossing your sky now

STARLINK-36361

Track STARLINK-36361 now!
10-day predictions
STARLINK-36361 is classified as:


NORAD ID: 67900
Int'l Code: 2026-035X
Perigee: 425.3 km
Apogee: 427.4 km
Inclination: 97.3 °
Period: 93.0 minutes
Semi major axis: 6797 km
RCS: Unknown
Launch date: February 21, 2026
Source: United States (US)
Launch site: AIR FORCE WESTERN TEST RANGE (AFWTR)
Your satellite tracking list
Your tracking list is empty




NASA's NSSDC Master Catalog

Two Line Element Set (TLE):
1 67900U 26035X   26101.83334491  .00057262  00000-0  10486-2 0  9996
2 67900  97.2844  35.8572 0001572  72.0875 146.9547 15.49140446  6215
Source of the keplerian elements: AFSPC